Location: Santa Giusta
(39.8800°N, 8.6069°E)
Time: 16:37:26
(UTC+00:00)

Cosmos 2360 Rocket - Pass Details

Date: 02 February 2023
Orbit: 832 x 846 km, 71.0° (Epoch: 30 March)

Event Time Altitude Azimuth Distance (km) Brightness Sun altitude
Rises 18:15:43 0° 204° (SSW) 3,368 5.8 -17.5°
Reaches altitude 10° 18:18:08 10° 205° (SSW) 2,440 5.0 -18.0°
Maximum altitude 18:23:45 82° 293° (WNW) 851 2.2 -19.0°
Drops below altitude 10° 18:29:25 10° 21° (NNE) 2,465 4.4 -20.1°
Enters shadow 18:29:27 10° 21° (NNE) 2,478 4.4 -20.1°
